User: anonymous   Login
Location: ??
(35.4032°N, 139.3073°E)
Time: 02:47:20
(UTC+00:00)
Language:

Cosmos 1515 Rocket - Orbit

View from above orbital plane
View from above orbital plane
View from above satellite
View from above satellite

Ground track
Ground track

The orbit data is extracted from the following two-line orbital elements,

1 14552U 83122B   25348.28651289  .00000606  00000-0  66896-4 0  9997
2 14552  82.5238  49.9272 0016630   7.5427 352.6036 14.85756459248150
Epoch (UTC): 14 December 2025 06:52:34
Eccentricity: 0.0016630
inclination: 82.5238°
perigee height: 599 km
apogee height: 623 km
right ascension of ascending node: 49.9272°
argument of perigee: 7.5427°
revolutions per day: 14.85756459
mean anomaly at epoch: 352.6036°
orbit number at epoch: 24815

The dashed part of the orbit path shows where the satellite is in the earth's shadow,  

DLR